Weather observations for the past three days for
Palestine, Palestine Municipal Airport
| Date | Time (cdt) | Wind (mph) | Vis. (mi.) | Weather | Sky Cond. | Temperature (ºF) | Relative Humidity | Wind Chill (°F) | Heat Index (°F) | Pressure | Precipitation (in) | ||||||
|---|---|---|---|---|---|---|---|---|---|---|---|---|---|---|---|---|---|
| Air | Dwpt | 6 hour | altimeter (in) | sea level (mb) | 1 hr | 3 hr | 6 hr | ||||||||||
| Max. | Min. | ||||||||||||||||
| 10 | 09:35 | E 7 | 10.00 | Overcast | OVC034 | 71.6 | 64.4 | 78% | 29.99 | 0.0 | |||||||
| 10 | 09:15 | E 8 | 10.00 | Overcast | OVC033 | 71.6 | 64.4 | 78% | 30 | 0.0 | |||||||
| 10 | 08:55 | E 9 G 15 | 9.00 | Overcast | BKN028 OVC032 | 69.8 | 66.2 | 88% | 30 | 0.0 | |||||||
| 10 | 08:35 | E 10 | 9.00 | Overcast | OVC026 | 69.8 | 66.2 | 88% | 30.01 | 0.0 | |||||||
| 10 | 08:15 | E 9 G 16 | 8.00 | Overcast | OVC022 | 68 | 66.2 | 94% | 30 | 0.0 | |||||||
| 10 | 07:55 | E 12 G 20 | 8.00 | Overcast | OVC020 | 68 | 66.2 | 94% | 30 | 0.0 | |||||||
| 10 | 07:35 | NE 10 G 17 | 8.00 | Overcast | FEW008 FEW012 OVC018 | 69.8 | 66.2 | 88% | 30 | 0.0 | |||||||
| 10 | 07:15 | E 12 G 18 | 7.00 | Overcast | SCT007 OVC015 | 68 | 68 | 100% | 29.98 | 0.0 | |||||||
| 10 | 06:55 | NE 12 | 6.00 | Fog/Mist | FEW006 OVC014 | 68 | 68 | 100% | 30 | 0.0 | |||||||
| 10 | 06:35 | NE 8 | 6.00 | Fog/Mist | OVC017 | 68 | 68 | 100% | 29.99 | 0.0 | |||||||
| 10 | 06:15 | NE 9 | 7.00 | Overcast | OVC014 | 68 | 68 | 100% | 29.97 | 0.0 | |||||||
| 10 | 05:55 | NE 6 | 7.00 | Overcast | OVC013 | 68 | 68 | 100% | 29.95 | 0.0 | |||||||
| 10 | 05:35 | NE 5 | 7.00 | Overcast | OVC012 | 68 | 68 | 100% | 29.94 | 0.0 | |||||||
| 10 | 05:15 | NE 5 | 7.00 | Overcast | OVC012 | 68 | 68 | 100% | 29.93 | 0.0 | |||||||
| 10 | 04:55 | Calm | 7.00 | Mostly Cloudy | BKN012 BKN022 | 68 | 68 | 100% | 29.91 | 0.0 | |||||||
| 10 | 04:35 | Calm | 7.00 | Partly Cloudy | SCT009 SCT012 SCT022 | 68 | 68 | 100% | 29.9 | 0.0 | |||||||
| 10 | 04:15 | SE 6 | 8.00 | Overcast | OVC009 | 69.8 | 68 | 94% | 29.89 | 0.0 | |||||||
| 10 | 03:55 | Calm | 8.00 | Overcast | OVC008 | 69.8 | 69.8 | 100% | 29.9 | 0.0 | |||||||
| 10 | 03:35 | Calm | 8.00 | Mostly Cloudy | BKN008 | 69.8 | 68 | 94% | 29.88 | 0.0 | |||||||
| 10 | 03:15 | Vrbl 6 | 8.00 | A Few Clouds | FEW010 FEW035 | 69.8 | 68 | 94% | 29.85 | 0.0 | |||||||
| 10 | 02:55 | S 6 | 8.00 | Fair | CLR | 69.8 | 68 | 94% | 29.84 | 0.0 | |||||||
| 10 | 02:35 | S 8 | 9.00 | Fair | CLR | 69.8 | 68 | 94% | 29.84 | 0.0 | |||||||
| 10 | 02:15 | SE 8 | 9.00 | Fair | CLR | 71.6 | 68 | 88% | 29.85 | 0.0 | |||||||
| 10 | 01:55 | SE 7 | 8.00 | Fair | CLR | 71.6 | 69.8 | 94% | 29.85 | 0.0 | |||||||
| 10 | 01:35 | SE 7 | 8.00 | Fair | CLR | 71.6 | 69.8 | 94% | 29.86 | 0.0 | |||||||
| 10 | 01:15 | SE 6 | 8.00 | Fair | CLR | 71.6 | 69.8 | 94% | 29.86 | 0.0 | |||||||
| 10 | 00:55 | SE 6 | 8.00 | Fair | CLR | 73.4 | 69.8 | 89% | 29.85 | 0.0 | |||||||
| 10 | 00:35 | S 8 | 8.00 | Fair | CLR | 73.4 | 69.8 | 89% | 29.85 | 0.0 | |||||||
| 10 | 00:15 | SE 8 G 16 | 8.00 | Fair | CLR | 73.4 | 69.8 | 89% | 29.85 | 0.0 | |||||||
| 09 | 23:55 | SE 10 | 8.00 | Fair | CLR | 75.2 | 69.8 | 83% | 75 | 29.85 | 0.0 | ||||||
| 09 | 23:35 | SE 10 G 17 | 8.00 | Fair | CLR | 75.2 | 69.8 | 83% | 75 | 29.85 | 0.0 | ||||||
| 09 | 23:15 | SE 9 | 8.00 | Fair | CLR | 75.2 | 69.8 | 83% | 75 | 29.85 | 0.0 | ||||||
| 09 | 22:55 | SE 6 | 8.00 | Fair | CLR | 77 | 69.8 | 79% | 79 | 29.85 | 0.0 | ||||||
| 09 | 22:35 | SE 5 | 8.00 | Fair | CLR | 77 | 69.8 | 79% | 79 | 29.85 | 0.0 | ||||||
| 09 | 22:15 | SE 5 | 8.00 | Fair | CLR | 77 | 69.8 | 79% | 79 | 29.84 | 0.0 | ||||||
| 09 | 21:55 | SE 6 | 8.00 | Fair | CLR | 77 | 71.6 | 83% | 78 | 29.83 | 0.0 | ||||||
| 09 | 21:35 | SE 6 | 8.00 | Fair | CLR | 77 | 71.6 | 83% | 78 | 29.83 | 0.0 | ||||||
| 09 | 21:15 | SE 5 | 8.00 | Fair | CLR | 75.2 | 71.6 | 89% | 75 | 29.82 | 0.0 | ||||||
| 09 | 20:55 | SE 3 | 8.00 | Fair | CLR | 75.2 | 71.6 | 89% | 75 | 29.81 | 0.0 | ||||||
| 09 | 20:35 | SE 3 | 9.00 | Fair | CLR | 77 | 71.6 | 83% | 78 | 29.8 | 0.0 | ||||||
| 09 | 20:15 | Calm | 8.00 | Fair | CLR | 78.8 | 73.4 | 84% | 82 | 29.79 | 0.0 | ||||||
| 09 | 19:55 | SE 3 | 8.00 | Fair | CLR | 82.4 | 71.6 | 70% | 87 | 29.79 | 0.0 | ||||||
| 09 | 19:35 | Calm | 9.00 | Fair | CLR | 84.2 | 69.8 | 62% | 88 | 29.78 | 0.0 | ||||||
| 09 | 19:15 | S 3 | 9.00 | Fair | CLR | 86 | 69.8 | 59% | 91 | 29.78 | 0.0 | ||||||
| 09 | 18:55 | Calm | 9.00 | Fair | CLR | 86 | 68 | 55% | 89 | 29.77 | 0.0 | ||||||
| 09 | 18:35 | SE 3 | 9.00 | Fair | CLR | 87.8 | 68 | 52% | 91 | 29.77 | 0.0 | ||||||
| 09 | 18:15 | SE 5 | 9.00 | Fair | CLR | 87.8 | 68 | 52% | 91 | 29.77 | 0.0 | ||||||
| 09 | 17:55 | Vrbl 3 | 9.00 | Fair | CLR | 87.8 | 68 | 52% | 91 | 29.77 | 0.0 | ||||||
| 09 | 17:35 | S 5 | 8.00 | A Few Clouds | FEW050 | 87.8 | 68 | 52% | 91 | 29.77 | 0.0 | ||||||
| 09 | 17:15 | Vrbl 3 | 8.00 | Fair | CLR | 87.8 | 68 | 52% | 91 | 29.77 | 0.0 | ||||||
| 09 | 16:55 | Vrbl 5 | 8.00 | Fair | CLR | 89.6 | 68 | 49% | 93 | 29.77 | 0.0 | ||||||
| 09 | 16:35 | Vrbl 5 | 9.00 | Fair | CLR | 89.6 | 68 | 49% | 93 | 29.77 | 0.0 | ||||||
| 09 | 16:15 | Vrbl 6 | 8.00 | Fair | CLR | 87.8 | 69.8 | 55% | 93 | 29.78 | 0.0 | ||||||
| 09 | 15:55 | SW 8 | 8.00 | A Few Clouds | FEW038 FEW044 | 87.8 | 69.8 | 55% | 93 | 29.79 | 0.0 | ||||||
| 09 | 15:35 | W 8 | 8.00 | Mostly Cloudy | SCT038 BKN044 BKN050 | 87.8 | 69.8 | 55% | 93 | 29.79 | 0.0 | ||||||
| 09 | 15:15 | SW 7 | 7.00 | Partly Cloudy | FEW037 FEW043 SCT050 | 86 | 69.8 | 59% | 91 | 29.8 | 0.0 | ||||||
| 09 | 14:55 | S 7 | 7.00 | A Few Clouds | FEW042 FEW049 | 86 | 71.6 | 62% | 92 | 29.81 | 0.0 | ||||||
| 09 | 14:35 | S 7 | 7.00 | Partly Cloudy | FEW031 SCT041 SCT049 | 84.2 | 71.6 | 66% | 90 | 29.81 | 0.0 | ||||||
| 09 | 14:15 | Vrbl 3 G 12 | 6.00 | Mostly Cloudy with Haze | SCT031 BKN039 | 84.2 | 71.6 | 66% | 90 | 29.82 | 0.0 | ||||||
| 09 | 13:55 | SW 8 | 7.00 | Mostly Cloudy | SCT035 BKN042 | 84.2 | 71.6 | 66% | 90 | 29.82 | 0.0 | ||||||
| 09 | 13:35 | S 7 | 7.00 | Partly Cloudy | SCT036 SCT042 | 84.2 | 71.6 | 66% | 90 | 29.83 | 0.0 | ||||||
| 09 | 13:15 | S 5 | 7.00 | Mostly Cloudy | SCT025 BKN031 BKN036 | 82.4 | 71.6 | 70% | 87 | 29.84 | 0.0 | ||||||
| 09 | 12:55 | SW 8 | 7.00 | Mostly Cloudy | BKN025 BKN030 | 82.4 | 71.6 | 70% | 87 | 29.84 | 0.0 | ||||||
| 09 | 12:35 | SW 9 | 7.00 | Partly Cloudy | SCT021 SCT027 | 80.6 | 71.6 | 74% | 85 | 29.84 | 0.0 | ||||||
| 09 | 12:15 | S 6 G 13 | 7.00 | Mostly Cloudy | FEW019 FEW024 BKN029 | 80.6 | 71.6 | 74% | 85 | 29.85 | 0.0 | ||||||
| 09 | 11:55 | SW 7 | 7.00 | Mostly Cloudy | FEW016 BKN028 | 78.8 | 71.6 | 79% | 82 | 29.86 | 0.0 | ||||||
| 09 | 11:35 | SW 6 | 6.00 | Overcast with Haze | FEW013 BKN017 OVC027 | 77 | 71.6 | 83% | 78 | 29.86 | 0.0 | ||||||
| 09 | 11:15 | Vrbl 6 | 6.00 | Fog/Mist | FEW010 SCT014 BKN025 | 77 | 73.4 | 89% | 78 | 29.86 | 0.0 | ||||||
| 09 | 10:55 | Calm | 4.00 | Fog/Mist | BKN024 | 75.2 | 73.4 | 94% | 74 | 29.86 | 0.0 | ||||||
| 09 | 10:35 | S 5 | 3.00 | Fog/Mist | SCT006 SCT009 BKN019 | 73.4 | 73.4 | 100% | 29.86 | 0.0 | |||||||
| 09 | 10:15 | Calm | 3.00 | Fog/Mist | BKN005 BKN008 OVC014 | 73.4 | 73.4 | 100% | 29.86 | 0.0 | |||||||
| 09 | 09:55 | Calm | 4.00 | Fog/Mist | BKN005 OVC015 | 73.4 | 73.4 | 100% | 29.85 | 0.0 | |||||||
| 09 | 09:35 | Calm | 3.00 | Fog/Mist | BKN003 | 71.6 | 71.6 | 100% | 29.85 | 0.0 | |||||||
| 09 | 09:15 | Calm | 2.00 | Fog/Mist | FEW003 | 71.6 | 71.6 | 100% | 29.86 | 0.0 | |||||||
| 09 | 08:55 | Calm | 1.25 | Fog/Mist | BKN003 | 71.6 | 71.6 | 100% | 29.86 | 0.0 | |||||||
| 09 | 08:35 | Calm | 1.75 | Fog/Mist | OVC003 | 71.6 | 71.6 | 100% | 29.86 | 0.0 | |||||||
| 09 | 08:15 | NW 3 | 3.00 | Fog/Mist | OVC004 | 71.6 | 71.6 | 100% | 29.86 | 0.0 | |||||||
| 09 | 07:55 | Calm | 3.00 | Fog/Mist | OVC003 | 71.6 | 71.6 | 100% | 29.85 | 0.0 | |||||||
| 09 | 07:35 | Calm | 0.75 | Fog/Mist | OVC002 | 71.6 | 71.6 | 100% | 29.83 | 0.0 | |||||||
| 09 | 07:15 | S 10 G 17 | 0.25 | Fog | OVC002 | 69.8 | 69.8 | 100% | 29.8 | 0.0 | |||||||
| 09 | 06:55 | S 5 | 0.25 | Fog | OVC002 | 69.8 | 69.8 | 100% | 29.82 | 0.0 | |||||||
| 09 | 06:35 | S 6 | 0.25 | Fog | OVC002 | 69.8 | 69.8 | 100% | 29.82 | 0.0 | |||||||
| 09 | 06:15 | S 6 | 0.75 | Fog/Mist | OVC002 | 69.8 | 69.8 | 100% | 29.82 | 0.0 | |||||||
| 09 | 05:55 | S 6 | 0.50 | Fog | OVC002 | 69.8 | 69.8 | 100% | 29.82 | 0.0 | |||||||
| 09 | 05:35 | Calm | 0.50 | Fog/Mist | OVC002 | 69.8 | 69.8 | 100% | 29.83 | 0.0 | |||||||
| 09 | 05:15 | Calm | 0.75 | Fog/Mist | OVC002 | 69.8 | 69.8 | 100% | 29.83 | 0.0 | |||||||
| 09 | 04:55 | Calm | 1.00 | Fog/Mist | OVC002 | 69.8 | 69.8 | 100% | 29.82 | 0.0 | |||||||
| 09 | 04:35 | Calm | 1.00 | Fog/Mist | OVC002 | 69.8 | 69.8 | 100% | 29.84 | 0.0 | |||||||
| 09 | 04:15 | Calm | 1.25 | Fog/Mist | OVC003 | 69.8 | 69.8 | 100% | 29.84 | 0.0 | |||||||
| 09 | 03:55 | Calm | 1.50 | Fog/Mist | OVC003 | 69.8 | 69.8 | 100% | 29.84 | 0.0 | |||||||
| 09 | 03:35 | Calm | 2.50 | Fog/Mist | OVC003 | 69.8 | 69.8 | 100% | 29.85 | 0.0 | |||||||
| 09 | 03:15 | Calm | 5.00 | Fog/Mist | OVC004 | 69.8 | 69.8 | 100% | 29.85 | 0.0 | |||||||
| 09 | 02:55 | S 5 | 7.00 | Overcast | OVC005 | 69.8 | 69.8 | 100% | 29.86 | 0.0 | |||||||
| 09 | 02:35 | Calm | 8.00 | Overcast | OVC006 | 69.8 | 69.8 | 100% | 29.85 | 0.0 | |||||||
| 09 | 02:15 | SE 7 | 9.00 | Overcast | OVC007 | 69.8 | 69.8 | 100% | 29.85 | 0.0 | |||||||
| 09 | 01:55 | SE 3 | 9.00 | Overcast | OVC008 | 71.6 | 69.8 | 94% | 29.86 | 0.0 | |||||||
| 09 | 01:35 | E 3 | 9.00 | Overcast | OVC009 | 71.6 | 69.8 | 94% | 29.86 | 0.0 | |||||||
| 09 | 01:15 | Calm | 9.00 | Overcast | OVC009 | 71.6 | 69.8 | 94% | 29.86 | 0.0 | |||||||
| 09 | 00:55 | NE 3 | 9.00 | Overcast | OVC010 | 71.6 | 69.8 | 94% | 29.86 | 0.0 | |||||||
| 09 | 00:35 | NE 3 | 9.00 | Overcast | OVC010 | 71.6 | 69.8 | 94% | 29.86 | 0.0 | |||||||
| 09 | 00:15 | Calm | 9.00 | Overcast | OVC011 | 71.6 | 69.8 | 94% | 29.85 | 0.0 | |||||||
| 08 | 23:55 | Calm | 9.00 | Overcast | BKN011 OVC021 | 71.6 | 69.8 | 94% | 29.85 | 0.0 | |||||||
| 08 | 23:35 | E 5 | 9.00 | Overcast | BKN013 OVC021 | 71.6 | 69.8 | 94% | 29.84 | 0.0 | |||||||
| 08 | 23:15 | Calm | 9.00 | Overcast | BKN013 OVC021 | 71.6 | 69.8 | 94% | 29.85 | 0.0 | |||||||
| 08 | 22:55 | Calm | 7.00 | Overcast | BKN013 OVC019 | 69.8 | 69.8 | 100% | 29.85 | 0.0 | |||||||
| 08 | 22:35 | Calm | 8.00 | Overcast | BKN015 OVC029 | 69.8 | 69.8 | 100% | 29.84 | 0.0 | |||||||
| 08 | 22:15 | Calm | 8.00 | Overcast | SCT030 OVC075 | 69.8 | 68 | 94% | 29.83 | 0.0 | |||||||
| 08 | 21:55 | Calm | 9.00 | Mostly Cloudy | FEW035 BKN080 | 69.8 | 68 | 94% | 29.82 | 0.0 | |||||||
| 08 | 21:35 | Calm | 9.00 | A Few Clouds | FEW036 | 71.6 | 68 | 88% | 29.81 | 0.0 | |||||||
| 08 | 21:15 | S 5 | 9.00 | Fair | CLR | 71.6 | 69.8 | 94% | 29.8 | 0.0 | |||||||
| 08 | 20:55 | S 6 | 10.00 | Fair | CLR | 71.6 | 68 | 88% | 29.79 | 0.0 | |||||||
| 08 | 20:35 | S 6 | 9.00 | Fair | CLR | 73.4 | 68 | 83% | 29.79 | 0.0 | |||||||
| 08 | 20:15 | S 7 | 8.00 | Fair | CLR | 73.4 | 68 | 83% | 29.79 | 0.0 | |||||||
| 08 | 19:55 | Vrbl 7 G 13 | 8.00 | A Few Clouds | FEW029 | 73.4 | 68 | 83% | 29.78 | 0.0 | |||||||
| 08 | 19:35 | SE 6 | 8.00 | Partly Cloudy | SCT030 | 75.2 | 68 | 78% | 76 | 29.79 | 0.0 | ||||||
| 08 | 19:15 | S 5 | 8.00 | A Few Clouds | FEW044 | 75.2 | 68 | 78% | 76 | 29.8 | 0.0 | ||||||
| 08 | 18:55 | S 6 | 8.00 | A Few Clouds | FEW044 | 77 | 66.2 | 69% | 79 | 29.81 | 0.0 | ||||||
| 08 | 18:35 | SE 6 | 8.00 | Partly Cloudy | SCT095 | 77 | 66.2 | 69% | 79 | 29.8 | 0.0 | ||||||
| 08 | 17:55 | SE 5 | 9.00 | Partly Cloudy | FEW031 FEW060 SCT095 | 77 | 66.2 | 69% | 79 | 29.81 | 0.0 | ||||||
| 08 | 17:35 | SE 5 | 8.00 | Overcast | BKN030 OVC060 | 77 | 66.2 | 69% | 79 | 29.82 | 0.0 | ||||||
| 08 | 17:15 | Calm | 8.00 | Overcast | OVC029 | 75.2 | 66.2 | 74% | 77 | 29.83 | 0.0 | ||||||
| 08 | 16:55 | Calm | 6.00 | Overcast with Haze | OVC030 | 75.2 | 66.2 | 74% | 77 | 29.84 | 0.0 | ||||||
| 08 | 16:35 | S 5 | 9.00 | Overcast | OVC030 | 75.2 | 66.2 | 74% | 77 | 29.84 | 0.0 | ||||||
| 08 | 16:15 | Vrbl 3 | 9.00 | Overcast | OVC030 | 75.2 | 66.2 | 74% | 77 | 29.84 | 0.0 | ||||||
| 08 | 15:55 | S 5 | 9.00 | Overcast | OVC028 | 75.2 | 64.4 | 69% | 77 | 29.84 | 0.0 | ||||||
| 08 | 15:35 | S 7 | 9.00 | Mostly Cloudy | BKN028 | 78.8 | 64.4 | 61% | 81 | 29.84 | 0.0 | ||||||
| 08 | 15:15 | E 3 | 9.00 | A Few Clouds | FEW039 | 77 | 62.6 | 61% | 79 | 29.84 | 0.0 | ||||||
| 08 | 14:35 | Calm | 10.00 | Overcast | OVC028 | 73.4 | 60.8 | 65% | 29.87 | 0.0 | |||||||
| 08 | 14:15 | Vrbl 3 | 10.00 | Overcast | OVC029 | 73.4 | 60.8 | 65% | 29.88 | 0.0 | |||||||
| 08 | 13:55 | Calm | 10.00 | Overcast | OVC031 | 73.4 | 60.8 | 65% | 29.88 | 0.0 | |||||||
| 08 | 13:35 | Calm | 10.00 | Overcast | BKN035 OVC040 | 73.4 | 60.8 | 65% | 29.88 | 0.0 | |||||||
| 08 | 13:15 | SE 3 | 10.00 | Overcast | OVC034 | 71.6 | 59 | 65% | 29.89 | 0.0 | |||||||
| 08 | 12:35 | E 7 | 10.00 | Overcast | OVC031 | 71.6 | 60.8 | 69% | 29.91 | 0.0 | |||||||
| 08 | 12:15 | SE 5 | 9.00 | Overcast | OVC031 | 68 | 60.8 | 78% | 29.93 | 0.0 | |||||||
| 08 | 11:55 | E 7 | 9.00 | Overcast | OVC032 | 68 | 60.8 | 78% | 29.94 | 0.0 | |||||||
| 08 | 11:35 | E 5 | 8.00 | Light Rain | BKN031 OVC037 | 68 | 60.8 | 78% | 29.95 | 0.0 | |||||||
| 08 | 11:15 | E 8 | 10.00 | Overcast | BKN030 OVC039 | 68 | 59 | 73% | 29.95 | 0.0 | |||||||
| 08 | 10:55 | E 7 | 9.00 | Overcast | SCT030 OVC041 | 68 | 59 | 73% | 29.96 | 0.0 | |||||||
| 08 | 10:35 | E 8 | 9.00 | Mostly Cloudy | FEW031 BKN042 BKN048 | 68 | 59 | 73% | 29.96 | 0.0 | |||||||
| 08 | 10:15 | E 9 | 9.00 | Partly Cloudy | FEW030 SCT043 SCT050 | 68 | 59 | 73% | 29.96 | 0.0 | |||||||
| 08 | 09:55 | Vrbl 7 G 13 | 10.00 | Overcast | OVC030 | 66.2 | 59 | 78% | 29.96 | 0.0 | |||||||
| 08 | 09:35 | E 8 | 10.00 | Overcast | OVC030 | 66.2 | 57.2 | 73% | 29.96 | 0.0 | |||||||
| 08 | 09:15 | SE 7 G 14 | 9.00 | Overcast | OVC031 | 66.2 | 57.2 | 73% | 29.97 | 0.0 | |||||||
| 08 | 08:35 | NE 5 | 9.00 | Fair | CLR | 66.2 | 59 | 78% | 29.97 | 0.0 | |||||||
| 08 | 08:15 | E 3 | 9.00 | Fair | CLR | 64.4 | 57.2 | 78% | 29.95 | 0.0 | |||||||
| 08 | 07:55 | SE 5 | 9.00 | Fair | CLR | 62.6 | 57.2 | 83% | 29.95 | 0.0 | |||||||
| 08 | 07:35 | SE 5 | 9.00 | Fair | CLR | 62.6 | 57.2 | 83% | 29.94 | 0.0 | |||||||
| 08 | 07:15 | SE 7 | 9.00 | A Few Clouds | FEW020 | 60.8 | 55.4 | 83% | 29.94 | 0.0 | |||||||
| 08 | 06:55 | SE 5 | 9.00 | Partly Cloudy | FEW021 SCT032 | 59 | 55.4 | 88% | 29.95 | 0.0 | |||||||
| 08 | 06:35 | NE 3 | 9.00 | Overcast | OVC033 | 59 | 57.2 | 94% | 29.94 | 0.0 | |||||||
| 08 | 06:15 | Calm | 9.00 | Overcast | OVC037 | 59 | 57.2 | 94% | 29.97 | 0.0 | |||||||
| 08 | 05:55 | Calm | 10.00 | Overcast | OVC038 | 60.8 | 55.4 | 83% | 29.98 | 0.0 | |||||||
| 08 | 05:35 | Calm | 10.00 | Overcast | BKN039 OVC120 | 60.8 | 53.6 | 77% | 29.97 | 0.0 | |||||||
| 08 | 05:15 | Calm | 10.00 | Mostly Cloudy | SCT043 BKN120 | 60.8 | 53.6 | 77% | 29.97 | 0.0 | |||||||
| 08 | 04:55 | Calm | 10.00 | Mostly Cloudy | FEW044 BKN110 | 60.8 | 53.6 | 77% | 29.97 | 0.0 | |||||||
| 08 | 04:35 | Calm | 10.00 | Overcast | OVC110 | 60.8 | 53.6 | 77% | 29.97 | 0.0 | |||||||
| 08 | 04:15 | NE 5 | 10.00 | Overcast | SCT031 OVC110 | 60.8 | 53.6 | 77% | 29.96 | 0.0 | |||||||
| 08 | 03:55 | NE 3 | 10.00 | Overcast | OVC032 | 60.8 | 53.6 | 77% | 29.96 | 0.0 | |||||||
| 08 | 03:35 | Calm | 10.00 | Overcast | OVC034 | 60.8 | 55.4 | 83% | 29.97 | 0.0 | |||||||
| 08 | 03:15 | Calm | 10.00 | Partly Cloudy | SCT035 SCT110 | 60.8 | 53.6 | 77% | 29.97 | 0.0 | |||||||
| 08 | 02:55 | Calm | 10.00 | A Few Clouds | FEW110 | 60.8 | 53.6 | 77% | 29.96 | 0.0 | |||||||
| 08 | 02:35 | E 5 | 10.00 | Partly Cloudy | SCT110 | 60.8 | 53.6 | 77% | 29.96 | 0.0 | |||||||
| 08 | 02:15 | NE 5 | 10.00 | Mostly Cloudy | BKN110 | 59 | 53.6 | 82% | 29.97 | 0.0 | |||||||
| 08 | 01:55 | E 5 | 10.00 | Partly Cloudy | SCT110 | 59 | 55.4 | 88% | 29.97 | 0.0 | |||||||
| 08 | 01:35 | NE 3 | 9.00 | A Few Clouds | FEW100 | 59 | 55.4 | 88% | 29.99 | 0.0 | |||||||
| 08 | 01:15 | Calm | 10.00 | Partly Cloudy | SCT100 | 59 | 55.4 | 88% | 29.99 | 0.0 | |||||||
| 08 | 00:55 | Calm | 9.00 | Fair | CLR | 59 | 57.2 | 94% | 29.99 | 0.0 | |||||||
| 08 | 00:35 | Calm | 9.00 | Fair | CLR | 59 | 57.2 | 94% | 29.98 | 0.0 | |||||||
| 08 | 00:15 | Calm | 9.00 | Fair | CLR | 59 | 57.2 | 94% | 29.98 | 0.0 | |||||||
| 07 | 23:55 | Calm | 9.00 | A Few Clouds | FEW120 | 59 | 57.2 | 94% | 30 | 0.0 | |||||||
| 07 | 23:35 | NW 5 | 9.00 | Partly Cloudy | SCT120 | 59 | 57.2 | 94% | 30 | 0.0 | |||||||
| 07 | 23:15 | N 5 | 9.00 | Fair | CLR | 59 | 57.2 | 94% | 29.99 | 0.0 | |||||||
| 07 | 22:55 | Calm | 10.00 | Fair | CLR | 59 | 57.2 | 94% | 29.98 | 0.0 | |||||||
| 07 | 22:35 | Calm | 10.00 | Fair | CLR | 60.8 | 57.2 | 88% | 29.99 | 0.0 | |||||||
| 07 | 22:15 | E 5 | 10.00 | A Few Clouds | FEW055 FEW085 FEW110 | 60.8 | 57.2 | 88% | 29.97 | 0.0 | |||||||
| 07 | 21:55 | E 5 | 10.00 | Fair | CLR | 60.8 | 57.2 | 88% | 29.98 | 0.0 | |||||||
| 07 | 21:35 | N 3 | 10.00 | A Few Clouds | FEW070 FEW095 FEW120 | 60.8 | 57.2 | 88% | 29.99 | 0.0 | |||||||
| 07 | 21:15 | Calm | 10.00 | Fair | CLR | 60.8 | 57.2 | 88% | 29.99 | 0.0 | |||||||
| 07 | 20:55 | Calm | 10.00 | Fair | CLR | 62.6 | 57.2 | 83% | 29.98 | 0.0 | |||||||
| 07 | 20:35 | E 7 | 9.00 | Mostly Cloudy | FEW031 SCT070 BKN110 | 62.6 | 57.2 | 83% | 29.96 | 0.0 | |||||||
| 07 | 20:15 | E 3 | 9.00 | Mostly Cloudy | FEW065 SCT085 BKN110 | 62.6 | 57.2 | 83% | 29.98 | 0.0 | |||||||
| 07 | 19:55 | Calm | 9.00 | A Few Clouds | FEW095 FEW110 | 62.6 | 57.2 | 83% | 29.98 | 0.0 | |||||||
| 07 | 19:35 | Calm | 9.00 | Fair | CLR | 64.4 | 57.2 | 78% | 29.99 | 0.0 | |||||||
| 07 | 19:15 | Calm | 9.00 | Fair | CLR | 64.4 | 57.2 | 78% | 30 | 0.0 | |||||||
| 07 | 18:35 | Calm | 9.00 | Fair | CLR | 64.4 | 55.4 | 73% | 29.98 | 0.0 | |||||||
| 07 | 18:15 | NW 8 | 9.00 | Fair | CLR | 64.4 | 55.4 | 73% | 30.01 | 0.0 | |||||||
| 07 | 17:55 | Vrbl 3 | 10.00 | Fair | CLR | 66.2 | 53.6 | 64% | 30 | 0.0 | |||||||
| 07 | 17:35 | E 3 | 10.00 | Fair | CLR | 66.2 | 53.6 | 64% | 30 | 0.0 | |||||||
| 07 | 17:15 | NE 6 | 10.00 | Fair | CLR | 66.2 | 53.6 | 64% | 30 | 0.0 | |||||||
| 07 | 16:55 | Vrbl 5 | 10.00 | Fair | CLR | 66.2 | 53.6 | 64% | 30 | 0.0 | |||||||
| 07 | 16:35 | NE 8 | 10.00 | Fair | CLR | 66.2 | 51.8 | 60% | 30 | 0.0 | |||||||
| 07 | 16:15 | Vrbl 3 | 10.00 | Fair | CLR | 68 | 51.8 | 56% | 30.01 | 0.0 | |||||||
| 07 | 15:55 | E 5 | 10.00 | Fair | CLR | 68 | 51.8 | 56% | 30.01 | 0.0 | |||||||
| 07 | 15:35 | Vrbl 6 | 10.00 | Fair | CLR | 66.2 | 51.8 | 60% | 30.02 | 0.0 | |||||||
| 07 | 15:15 | NE 8 | 10.00 | Fair | CLR | 66.2 | 51.8 | 60% | 30.02 | 0.0 | |||||||
| 07 | 14:55 | NE 6 | 10.00 | Fair | CLR | 66.2 | 51.8 | 60% | 30.03 | 0.0 | |||||||
| 07 | 14:35 | NE 7 | 10.00 | Fair | CLR | 66.2 | 51.8 | 60% | 30.03 | 0.0 | |||||||
| 07 | 14:15 | Vrbl 5 G 12 | 10.00 | Fair | CLR | 66.2 | 50 | 56% | 30.05 | 0.0 | |||||||
| 07 | 13:55 | N 13 | 10.00 | Fair | CLR | 66.2 | 50 | 56% | 30.04 | 0.0 | |||||||
| 07 | 13:35 | N 13 G 21 | 10.00 | Fair | CLR | 66.2 | 50 | 56% | 30.04 | 0.0 | |||||||
| 07 | 13:15 | NE 10 | 10.00 | Fair | CLR | 66.2 | 50 | 56% | 30.05 | 0.0 | |||||||
| 07 | 12:55 | NE 10 | 10.00 | Fair | CLR | 68 | 50 | 53% | 30.07 | 0.0 | |||||||
| 07 | 12:35 | NE 10 G 16 | 9.00 | Fair | CLR | 68 | 51.8 | 56% | 30.06 | 0.0 | |||||||
| 07 | 12:15 | NE 7 G 14 | 10.00 | Fair | CLR | 66.2 | 50 | 56% | 30.08 | 0.0 | |||||||
| 07 | 11:55 | N 9 G 15 | 10.00 | Fair | CLR | 66.2 | 50 | 56% | 30.08 | 0.0 | |||||||
| 07 | 11:35 | NE 12 G 18 | 10.00 | Fair | CLR | 64.4 | 50 | 60% | 30.06 | 0.0 | |||||||
| 07 | 11:15 | NE 12 G 17 | 10.00 | Fair | CLR | 66.2 | 50 | 56% | 30.08 | 0.0 | |||||||
| 07 | 10:55 | NE 13 | 10.00 | Fair | CLR | 64.4 | 50 | 60% | 30.07 | 0.0 | |||||||
| 07 | 10:35 | NE 7 G 16 | 10.00 | Fair | CLR | 60.8 | 50 | 68% | 30.09 | 0.0 | |||||||
| 07 | 10:15 | NE 10 | 10.00 | Fair | CLR | 59 | 50 | 72% | 30.09 | 0.0 | |||||||
| 07 | 09:55 | NE 9 | 10.00 | Fair | CLR | 57.2 | 50 | 77% | 30.1 | 0.0 | |||||||
| Date | Time (cdt) | Wind (mph) | Vis. (mi.) | Weather | Sky Cond. | Air | Dwpt | Max. | Min. | Relative Humidity | Wind Chill (°F) | Heat Index (°F) | altimeter (in) | sea level (mb) | 1 hr | 3 hr | 6 hr |
| 6 hour | |||||||||||||||||
| Temperature (ºF) | Pressure | Precipitation (in) | |||||||||||||||